Regional Weather Roundup
Issued by NWS Upton, NY

Current Version | Previous Version | Graphics & Text | Print | Product List | Glossary On
Versions: 1 2 3 4 5 6 7 8 9 10 11 12 13 14 15 16 17 18 19 20 21 22 23 24 25 26 27 28 29 30 31 32 33 34 35 36 37 38 39 40 41 42 43 44 45 46 47 48 49 50
000 ASUS41 KOKX 290108 RWROKX REGIONAL WEATHER ROUNDUP NATIONAL WEATHER SERVICE NEW YORK NY 900 PM EDT SUN MAY 28 2017 NOTE: "FAIR" INDICATES FEW OR NO CLOUDS BELOW 12,000 FEET WITH NO SIGNIFICANT WEATHER AND/OR OBSTRUCTIONS TO VISIBILITY. NYZ071-072-176-178-NJZ106-104-290200- NEW YORK CITY METRO AREA CITY SKY/WX TMP DP RH WIND PRES REMARKS Central Park CLOUDY 63 50 62 VRB5 29.97S Wall St Helipt CLOUDY 63 52 67 E8 29.95F Bronx Bot Gard N/A 61 48 63 S3 29.95F LaGuardia APRT CLOUDY 63 50 62 SE9 29.94S Kennedy INTL CLOUDY 61 54 77 E10 29.95S Breezy Point N/A 59 N/A N/A E12G17 N/A Newark/Liberty LGT RAIN 63 51 65 SE7 29.94S Teterboro CLOUDY 64 50 60 SE5 29.93S $$ NYZ177-179-078>081-290200- LONG ISLAND NEW YORK CITY SKY/WX TMP DP RH WIND PRES REMARKS Jones Beach N/A 59 N/A N/A E9 N/A Matinecock PT NOT AVBL Farmingdale CLOUDY 60 51 72 SE10 29.94F MacArthur/ISP CLOUDY 58 53 84 SE10 29.96S Shirley CLOUDY 57 55 93 SE7 29.97F Mt Sinai Harb N/A N/A N/A N/A SE7 N/A Westhampton CLOUDY 57 53 86 SE8 29.99F East Hampton N/A 55 52 90 SE7 29.98F Montauk NOT AVBL $$ NYZ052-065-067-290200- HUDSON VALLEY CITY SKY/WX TMP DP RH WIND PRES REMARKS White Plains MOCLDY 59 49 69 SE5 29.95S Larchmont Harb N/A 61 N/A N/A E8 N/A Croton O-T Hud N/A 63 N/A N/A SE2 N/A Newburgh MOCLDY 63 50 63 S7 29.94F Montgomery PTCLDY 63 49 60 S5 29.92S Poughkeepsie CLOUDY 63 49 60 VRB3 29.93R Albany CLOUDY 68 56 65 S14G22 29.89R $$ NJZ001-105-106-008-010-013-015-019>022-104-290200- NEW JERSEY CITY SKY/WX TMP DP RH WIND PRES REMARKS Newark/Liberty LGT RAIN 63 51 65 SE7 29.94S Teterboro CLOUDY 64 50 60 SE5 29.93S Caldwell CLOUDY 65 50 58 VRB3 29.94F Somerville LGT RAIN 61 56 83 CALM 29.91S Linden DRIZZLE 61 53 76 SE6 29.94S Perth Amboy N/A 59 N/A N/A E10 N/A Sussex CLOUDY 63 51 65 VRB3 29.93S Andover N/A 61 49 64 VRB3 29.93S Trenton LGT RAIN 61 56 83 E9 29.91R Millville LGT RAIN 62 61 96 E12 29.86S Atlantic City NOT AVBL Wrightstown LGT RAIN 60 56 88 NE6 29.88F Toms River LGT RAIN 60 56 86 E6 29.92S Belmar LGT RAIN 59 56 89 E7 29.93F $$ PAZ047>061-062-071-290200- EASTERN PENNSYLVANIA CITY SKY/WX TMP DP RH WIND PRES REMARKS Philadelphia LGT RAIN 63 57 81 E13 29.88F Allentown LGT RAIN 66 55 67 SE9G22 29.89S Scranton CLOUDY 67 57 70 VRB5 29.87F $$ CTZ002-004>006-009-010-012-RIZ004-006-007-MAZ004-011-015-290200- SOUTHERN NEW ENGLAND IN CT CITY SKY/WX TMP DP RH WIND PRES REMARKS Bradley INTL CLOUDY 62 47 57 S8 29.97R Hartford MOCLDY 61 49 64 SE5 29.98R Danbury CLOUDY 58 49 72 VRB3 29.96F Wtrbury/Oxford CLOUDY 57 45 62 S6 29.98F Bridgeport CLOUDY 61 50 67 E6 29.96F Meriden MOCLDY 59 47 64 SE6 29.98S New Haven CLOUDY 58 51 78 E7 29.97F Chester N/A 55 54 94 VRB5 29.99S Groton CLOUDY 55 51 86 E6 29.99S Wilimantic CLOUDY 60 49 66 S5 30.00R IN RI CITY SKY/WX TMP DP RH WIND PRES REMARKS Providence CLOUDY 55 51 86 S10 30.02R Block Island CLOUDY 54 51 90 SE8 30.01R Westerly CLOUDY 57 52 83 SE5 30.01R IN MA CITY SKY/WX TMP DP RH WIND PRES REMARKS Boston CLOUDY 61 50 67 S10 29.99R Worcester CLOUDY 59 47 64 S7 29.99R Westfield NOT AVBL Provincetown PTCLDY 53 49 86 S9 30.03R Nantucket CLOUDY 50 46 86 SE8 30.03S $$ ANZ330-335-338-340-345-350-353-355-290200- COASTAL MARINE OBSERVATIONS STATION/POSITION TIME SKY/WX TEMP WIND PRES VSBY WAVE AIR SEA DIR/SP/G HT/PER (UTC) (F) (DEG/KT/KT) (MB) (MI) (FT/S) NY HARB ENTRANCE 2350 59 59 90/ 14/ 16 1013.5 2/ 8 20 S FIRE ISLAND 0050 58 58 100/ 16/ 17 1012.8 3/ 7 GREAT SOUTH BAY 0030 59 65 100/ 14/ 17 N/A 23 SSW MONTAUK P 2350 56 56 1015.8 2/ 8 15 E BARNEGAT LI 0030 60 N/A 3/ 4 HUDSON CANYON 0050 58 55 110/ 16/ 17 1012.6 4/ 4 KINGS POINT 0030 62 61 170/ 3/ 8 1014.1 EXECUTION ROCKS 0045 62 N/A CENTRAL LI SOUND NOT AVBL EASTERN LI SOUND NOT AVBL ROBBINS REEF 0030 62 110/ 14/ 17 1014.3 $$ >>>>>>>>>>>>>>>>>>>>>>>>>>>> KEY <<<<<<<<<<<<<<<<<<<<<<<<<<< > < > SKY/WX - Sky Condition/Present Weather < > TMP - Temperature in Fahrenheit < > DP - Dew Point in Fahrenheit < > RH - Relative Humidity in Percent < > WIND - Direction (from) and Speed in MPH < > PRES - Mean Sea Level Pressure (inches of Hg) < > WCI - Wind Chill Index < > VSB - VISIBILITY IN MILES < > HX - HEAT INDEX < > TC - TEMPERATURE IN CELSIUS < > VRB - VARIABLE WIND DIRECTION < > < >>>>>>>>>>>>>>>>>>>>>>>>>>>> KEY <<<<<<<<<<<<<<<<<<<<<<<<<<<

USA.gov is the U.S. government's official web portal to all federal, state and local government web resources and services.